St. Petersburg, FL

3:17 PM EST on January 18, 2018 (GMT -0500)
Whitted

Weather History for KSPG - January, 2013

Change the Weather History Date:

Friday, January 18, 2013

  Actual Average Record
Temperature  
Mean Temperature 56 °F -  
Max Temperature 64 °F 70 °F 80 °F (1949)
Min Temperature 48 °F 54 °F 33 °F (1959)
Degree Days  
Heating Degree Days 9    
Growing Degree Days 6 (Base 50)    
Moisture  
Dew Point 49 °F    
Average Humidity 73    
Maximum Humidity 80    
Minimum Humidity 64    
Precipitation  
Precipitation 0.00 in - - ()
Sea Level Pressure  
Sea Level Pressure 30.25 in    
Wind  
Wind Speed 15 mph (NE)    
Max Wind Speed 25 mph    
Max Gust Speed 32 mph    
Visibility 10 miles    
Events      
Averages and records for this station are not official NWS values.
T = Trace of Precipitation, MM = Missing Value Source: NWS Daily Summary

Daily Weather History Graph

Daily Weather History Graph

Search for Another Location

Airport or City:

Trip Planner

Search our weather history database for the weather conditions in past years. The results will help you decide how hot, cold, wet, or windy it might be!

Date:

Astronomy

Jan. 18, 2013 Rise Set
Actual Time 7:22 AM EST 6:00 PM EST
Civil Twilight 6:57 AM EST 6:25 PM EST
Nautical Twilight 6:28 AM EST 6:53 PM EST
Astronomical Twilight 6:00 AM EST 7:22 PM EST
Moon 11:42 AM EST 12:08 AM EST
Length of Visible Light 11h 28m
Length of Day
10h 38m
Waxing Crescent, 47% of the Moon is Illuminated
Jan 18
Waxing Crescent
Jan 18
First Quarter
Jan 26
Full
Feb 3
Last Quarter
Feb 10
New

Hourly Weather History & Observations

Time (EST) Temp. Dew Point Humidity Pressure Visibility Wind Dir Wind Speed Gust Speed Precip Events Conditions
12:04 AM 55.9 °F 46.0 °F 69% 30.15 in 10.0 mi NNW 9.2 mph 21.9 mph N/A   Mostly Cloudy
12:53 AM 55.0 °F 45.0 °F 69% 30.16 in 10.0 mi North 15.0 mph 24.2 mph N/A   Overcast
1:53 AM 54.0 °F 45.0 °F 72% 30.17 in 10.0 mi North 12.7 mph - N/A   Overcast
2:53 AM 54.0 °F 45.0 °F 72% 30.17 in 10.0 mi North 17.3 mph - N/A   Overcast
3:53 AM 52.0 °F 44.1 °F 74% 30.18 in 10.0 mi NNE 12.7 mph 23.0 mph N/A   Overcast
4:19 AM 52.0 °F 45.0 °F 77% 30.19 in 10.0 mi NNE 17.3 mph - N/A   Scattered Clouds
4:53 AM 50.0 °F 44.1 °F 80% 30.20 in 10.0 mi NNE 17.3 mph - N/A   Clear
5:53 AM 48.9 °F 42.1 °F 77% 30.23 in 10.0 mi NNE 21.9 mph 28.8 mph N/A   Clear
7:53 AM 48.0 °F 41.0 °F 77% 30.28 in 10.0 mi NE 20.7 mph 27.6 mph N/A   Scattered Clouds
8:06 AM 48.0 °F 41.0 °F 77% 30.30 in 10.0 mi ENE 25.3 mph 32.2 mph N/A   Mostly Cloudy
8:53 AM 48.0 °F 39.9 °F 74% 30.30 in 10.0 mi NE 13.8 mph - N/A   Overcast
9:53 AM 51.1 °F 43.0 °F 74% 30.31 in 10.0 mi ENE 12.7 mph - N/A   Overcast
10:53 AM 53.1 °F 43.0 °F 69% 30.31 in 10.0 mi NE 10.4 mph - N/A   Mostly Cloudy
11:53 AM 55.9 °F 46.0 °F 69% 30.29 in 10.0 mi NNE 13.8 mph - N/A   Overcast
12:53 PM 57.9 °F 46.9 °F 67% 30.26 in 10.0 mi NE 10.4 mph - N/A   Partly Cloudy
1:53 PM 61.0 °F 48.9 °F 64% 30.24 in 10.0 mi NE 13.8 mph - N/A   Partly Cloudy
2:53 PM 63.0 °F 52.0 °F 67% 30.23 in 10.0 mi NE 18.4 mph - N/A   Overcast
3:53 PM 62.1 °F 55.0 °F 78% 30.23 in 10.0 mi ENE 17.3 mph - N/A   Overcast
4:53 PM 63.0 °F 55.0 °F 75% 30.24 in 10.0 mi ENE 12.7 mph - N/A   Overcast
5:13 PM 63.0 °F 55.0 °F 75% 30.24 in 10.0 mi ENE 15.0 mph - N/A   Overcast
5:21 PM 63.0 °F 55.0 °F 75% 30.24 in 10.0 mi ENE 12.7 mph - N/A   Overcast
5:53 PM 64.0 °F 55.9 °F 75% 30.25 in 10.0 mi ENE 16.1 mph - N/A   Overcast
6:53 PM 64.9 °F 57.0 °F 75% 30.26 in 10.0 mi ENE 19.6 mph 26.5 mph N/A   Overcast
7:05 PM 64.9 °F 55.9 °F 73% 30.26 in 10.0 mi ENE 19.6 mph - N/A   Overcast
7:53 PM 64.0 °F 54.0 °F 70% 30.27 in 10.0 mi NE 17.3 mph - N/A   Overcast
8:02 PM 64.0 °F 55.0 °F 73% 30.27 in 10.0 mi NE 17.3 mph - N/A   Overcast
8:36 PM 63.0 °F 54.0 °F 72% 30.28 in 10.0 mi NE 17.3 mph - N/A   Overcast
8:53 PM 63.0 °F 53.1 °F 70% 30.29 in 10.0 mi ENE 19.6 mph - N/A   Overcast
9:09 PM 63.0 °F 53.1 °F 70% 30.28 in 10.0 mi NE 17.3 mph - N/A   Overcast
9:24 PM 63.0 °F 53.1 °F 70% 30.29 in 10.0 mi ENE 20.7 mph 28.8 mph N/A   Overcast
9:53 PM 62.1 °F 52.0 °F 70% 30.28 in 10.0 mi NE 18.4 mph - N/A   Overcast
10:14 PM 61.0 °F 52.0 °F 72% 30.28 in 10.0 mi NE 16.1 mph - N/A   Overcast
10:53 PM 61.0 °F 52.0 °F 72% 30.29 in 10.0 mi NE 12.7 mph - N/A   Overcast
11:31 PM 60.1 °F 52.0 °F 75% 30.27 in 10.0 mi NNE 13.8 mph - N/A   Overcast
11:53 PM 59.0 °F 51.1 °F 75% 30.26 in 10.0 mi NNE 16.1 mph - N/A   Overcast